Location: Newark
(40.9833°N, 0.0333°W)
Time: 02:53:24
(UTC+00:00)

Transit 2A Rocket - Pass Details

Date: 27 October 2020
Orbit: 588 x 914 km, 66.7° (Epoch: 26 November)

Event Time Altitude Azimuth Distance (km) Brightness Sun altitude
Rises 16:46:34 0° 342° (NNW) 3,336 8.3 1.9°
Reaches altitude 10° 16:50:38 10° 10° (N) 2,317 7.2 1.2°
Maximum altitude 16:52:55 13° 36° (NE) 2,085 6.8 0.8°
Drops below altitude 10° 16:55:07 10° 62° (ENE) 2,216 6.8 0.4°
Sets 16:58:48 0° 91° (E) 3,050 7.5 -0.3°
